Location: ??
(35.5052°N, 139.7262°E)
Time: 12:41:53
(UTC+00:00)

Tiangong - Visible Passes

Search period start: 24 September 2021 00:00
Search period end: 04 October 2021 00:00
Orbit: 382 x 385 km, 41.5° (Epoch: 24 September)

Date Brightness Start Highest point End Pass type
(mag) Time Alt. Az. Time Alt. Az. Time Alt. Az.
24 Sep 1.9 19:43:21 11° SW 19:46:16 47° SSE 19:49:19 10° ENE visible
25 Sep 2.9 18:46:39 25° SE 18:46:39 25° SE 18:49:08 10° E visible
26 Sep 1.0 19:22:03 36° WSW 19:23:12 89° SSE 19:26:22 10° ENE visible
27 Sep 3.7 18:25:10 20° E 18:25:10 20° E 18:26:23 10° ENE visible
27 Sep 2.0 19:57:23 11° W 20:00:12 37° NNW 20:03:11 10° NE visible
28 Sep 1.5 19:00:26 52° N 19:00:26 52° N 19:03:18 10° ENE visible
29 Sep 2.4 19:35:38 18° WNW 19:37:17 29° N 19:40:07 10° NE visible
30 Sep 3.3 18:38:36 24° NE 18:38:36 24° NE 18:40:11 10° NE visible
30 Sep 2.7 20:11:45 10° WNW 20:14:29 26° N 20:17:14 10° ENE visible
01 Oct 2.6 19:13:45 24° NNW 19:14:22 26° N 19:17:06 10° ENE visible
02 Oct 4.4 18:16:42 12° NE 18:16:42 12° NE 18:17:04 10° NE visible
02 Oct 2.6 19:48:54 11° NW 19:51:33 30° N 19:54:24 10° ENE visible
03 Oct 2.9 18:51:52 25° NNE 18:51:52 25° NNE 18:54:10 10° ENE visible
